Temp_Advection
nan nan nan nan nan nan nan nan nan nan nan nan nan nan nan nan nan nan nan nan nan nan nan nan nan nan nan nan nan nan nan nan nan nan nan nan nan nan nan nan nan nan nan nan
nan -0 -1 -0 0 -0 -0 -0 -0 0 -0 0 0 -0 -0 0 0 -0 -0 -0 -0 -0 -0 -0 -0 -0 -0 -0 -0 -0 -1 -0 -0 -0 -0 -0 -0 -0 -0 -0 0 0 -0 nan
nan -0 -0 -0 -1 -0 -0 -0 0 0 0 -0 0 0 0 0 0 0 -0 -0 -0 -0 -0 -0 -0 -0 -0 -0 -0 -0 -0 -0 -0 -0 -0 -0 -0 -0 0 0 -0 -0 0 nan
nan -0 0 -1 -0 0 0 -0 -0 -0 0 0 0 0 0 0 0 0 0 -0 -0 -0 -0 -0 -0 -0 -0 -0 -0 -0 0 -0 -0 -0 -0 -0 -0 -0 -0 0 -0 -0 0 nan
nan -0 -1 -0 0 -0 -0 0 -0 -0 0 -0 -0 1 0 0 -0 0 -0 -0 -0 -0 -0 -0 -0 -0 -0 0 0 -0 -0 -0 -0 -0 -0 -0 0 -0 -0 -0 0 0 0 nan
nan 0 -0 -0 -0 -0 -1 0 -0 -0 -0 0 -0 -0 -0 -0 0 0 -0 0 0 -0 -0 -0 -0 -0 -0 -0 -0 -0 -0 -0 -0 -0 -0 -0 -0 0 0 -0 -0 0 0 nan
nan -0 -1 -1 -0 -0 -0 -0 -0 -0 -0 0 0 -0 -0 0 0 -0 -0 -0 -0 -0 -0 -0 -0 -0 -0 -0 -0 -0 -0 -0 -0 -0 -0 -0 0 0 -0 -0 0 -0 -0 nan
nan 0 -1 -1 -0 -0 -1 -1 0 0 0 0 -0 0 0 0 0 0 0 0 0 -0 -0 -0 -0 -0 -0 -0 -0 -0 -0 -0 0 0 -0 -0 -0 -0 0 0 -0 -0 -0 nan
nan -1 -1 -1 -0 -1 -0 0 0 0 0 0 0 0 0 0 0 0 0 0 -0 -0 -0 -0 -0 -0 -0 -0 -0 -0 -0 -0 -0 0 0 -0 -0 -0 -0 -0 -0 -0 -0 nan
nan -0 -1 -1 0 0 1 1 1 1 0 0 0 0 0 0 0 0 0 -0 -0 -0 -0 -0 0 0 -0 -0 -0 -0 -0 -0 -0 -0 0 0 0 -0 -0 -0 -0 -0 -0 nan
nan -0 0 0 0 1 1 1 0 0 0 0 0 0 0 0 0 0 -0 -0 -0 -0 -0 -0 -0 0 0 0 -0 -0 -0 -0 -0 -0 -0 0 0 0 -0 -0 -0 -0 -0 nan
nan -1 -0 0 1 1 1 1 0 0 0 0 0 0 0 0 -0 0 -0 -0 -0 -0 -0 -0 -0 -0 0 0 -0 -0 -0 -0 0 -0 -0 -0 0 -0 -0 -0 -0 -0 -0 nan
nan -0 0 1 1 1 0 0 0 0 0 0 0 0 -0 -0 -0 0 0 -0 -0 -0 0 -0 -0 0 0 0 -0 -0 -0 -0 0 0 -0 -0 0 0 -0 -0 -0 -0 -0 nan
nan 1 0 1 0 0 0 0 0 0 0 0 0 0 -0 -0 0 0 -0 -0 -0 -0 0 0 0 0 -0 0 -0 0 0 -0 0 0 0 0 0 0 0 -0 -0 -0 -0 nan
nan 1 0 1 0 0 1 1 0 0 0 0 -0 -0 0 0 -0 -0 -0 -0 -0 -0 0 0 1 0 0 0 -0 -0 0 0 0 0 0 0 0 0 0 0 -0 -0 0 nan
nan 1 1 1 1 1 1 0 0 0 0 0 0 0 0 -0 0 0 0 -0 -0 -0 -0 -0 -0 0 0 0 0 0 0 0 0 0 0 0 0 0 0 0 0 -0 0 nan
nan 1 1 2 1 1 1 0 0 0 0 0 0 0 -0 0 0 0 0 0 0 -0 -1 -1 -0 -0 -0 0 -0 0 0 0 0 0 0 0 0 0 0 0 0 -0 0 nan
nan 1 1 0 1 0 -0 0 -0 0 0 0 0 0 0 0 0 0 -0 -0 -0 1 0 -0 -0 -0 -0 0 0 0 0 0 1 1 0 -0 -0 -0 0 0 0 0 0 nan
nan -0 -0 -0 -0 -0 -0 0 0 0 0 0 0 0 0 0 0 0 -0 0 -0 -1 0 0 0 0 -0 -1 0 0 0 0 0 1 1 0 -0 -0 0 0 0 0 0 nan
nan 0 0 -0 0 -0 0 0 -0 -0 0 0 0 0 0 0 0 0 0 0 1 0 -0 -0 -0 -0 0 -0 -0 -0 0 0 0 0 0 0 0 0 0 0 0 0 0 nan
nan -0 0 -0 -0 -0 -0 -0 -0 0 0 0 0 -0 0 0 0 0 0 0 1 1 0 0 -0 -0 -0 -0 -0 -0 0 0 0 0 0 0 0 0 0 0 0 0 0 nan
nan -0 -0 -0 -0 -0 -0 -0 -0 0 -0 -0 0 0 0 0 0 0 0 0 0 1 0 0 0 -0 -0 -0 -0 0 0 0 0 0 0 1 1 0 0 0 0 0 1 nan
nan -0 -0 -0 -0 -0 -0 0 0 0 0 -0 -0 0 0 0 0 0 -0 0 0 0 1 0 0 -0 -0 -0 -0 0 0 0 -0 -0 0 1 1 1 1 0 0 0 0 nan
nan -0 -0 -0 -0 -0 -0 -0 0 -0 -0 0 0 0 -0 0 0 1 0 -0 -0 -0 -0 0 0 0 -0 -0 -0 -0 0 0 -0 -0 0 0 1 1 1 1 0 0 0 nan
nan -0 -0 -0 -0 -0 -0 -0 -0 -0 -0 -0 0 0 0 0 -0 0 1 0 0 -0 -0 -0 0 -0 -0 -0 -0 -0 -0 -0 -0 -0 -0 0 0 1 1 1 1 0 0 nan
nan -0 -0 -0 -0 -0 -0 -0 -0 -0 -0 -0 -0 0 0 0 1 0 0 0 0 0 -0 -0 -0 -0 -0 -0 -0 -0 -1 -1 -1 -1 -0 -0 -0 0 1 1 1 1 0 nan
nan nan nan nan nan nan nan nan nan nan nan nan nan nan nan nan nan nan nan nan nan nan nan nan nan nan nan nan nan nan nan nan nan nan nan nan nan nan nan nan nan nan nan nan
Wind_Speed
2 4 1 1 1 2 5 4 5 6 7 8 8 10 16 20 14 6 4 8 11 8 7 7 10 11 16 16 17 22 27 32 32 34 31 32 32 30 23 15 12 8 12 20
1 5 6 3 5 6 5 4 5 2 3 5 12 14 16 13 10 6 3 6 4 5 7 4 9 12 13 18 22 26 30 31 32 32 31 35 32 26 16 15 10 16 16 18
3 4 5 5 5 3 2 2 3 5 5 9 6 14 15 11 7 3 2 2 4 6 4 9 10 14 18 22 26 25 25 30 31 28 33 37 29 24 21 17 12 13 15 16
2 3 1 5 4 5 7 3 8 10 6 9 14 14 12 6 2 2 1 3 6 5 10 10 14 17 19 24 23 25 27 29 29 31 33 30 23 23 23 7 10 15 12 17
3 3 5 4 5 5 6 4 6 10 10 10 17 14 8 2 1 3 2 7 6 10 10 13 14 18 25 27 23 27 26 26 27 28 31 25 15 14 13 10 11 12 15 17
3 4 6 5 3 10 7 4 14 14 14 11 16 3 4 3 3 3 5 5 6 7 13 16 20 24 24 22 23 19 26 26 28 27 24 19 15 10 10 11 13 12 13 18
3 2 8 7 6 7 5 7 19 17 15 13 6 7 3 3 4 2 5 4 7 12 13 18 21 20 21 23 24 25 23 25 29 23 18 16 14 12 14 11 9 11 17 21
3 2 8 14 7 7 6 14 17 15 14 12 8 6 6 3 2 2 2 8 11 13 17 20 19 21 25 25 23 24 27 30 23 20 19 12 12 12 10 9 11 16 18 21
10 7 6 22 11 18 13 16 18 19 15 10 8 7 5 4 4 4 7 10 14 19 22 24 22 25 25 25 27 33 29 24 22 21 19 13 12 12 14 13 14 17 20 19
3 6 16 15 17 12 17 15 17 16 13 7 6 7 7 6 3 7 11 16 20 24 26 25 25 24 26 29 31 27 22 22 22 21 14 14 14 13 11 12 16 18 18 17
4 4 3 7 14 16 14 13 15 10 4 7 9 9 6 3 6 10 15 19 22 24 23 24 24 25 29 32 30 19 18 20 21 17 15 14 12 10 11 15 17 16 14 16
7 8 9 10 17 19 17 16 12 9 14 12 9 6 2 5 11 16 19 22 22 22 24 23 25 28 29 27 26 22 23 20 15 15 13 12 11 12 13 15 14 12 13 15
14 14 16 13 19 17 14 14 15 17 13 10 6 1 6 13 17 19 20 20 21 24 23 25 28 29 28 22 26 22 20 15 15 13 13 14 14 14 17 5 8 10 13 14
20 16 11 22 15 17 16 20 17 15 11 6 1 5 12 18 18 18 20 21 22 24 25 27 28 27 24 21 22 23 14 13 12 13 15 16 15 14 10 10 12 12 12 14
19 22 15 18 16 21 21 17 16 12 7 1 5 13 18 17 17 19 20 22 24 26 27 29 26 22 20 19 19 20 12 13 14 14 13 14 15 16 11 11 10 11 13 14
20 16 16 21 25 19 17 14 12 6 1 6 13 16 14 16 19 19 19 23 27 30 29 27 24 17 19 20 21 19 14 15 16 15 13 15 16 15 12 12 12 13 10 13
23 20 24 26 23 18 12 7 4 2 7 12 13 12 14 17 19 19 22 26 29 28 26 23 19 18 19 21 21 19 14 15 15 16 18 19 16 14 13 12 13 10 11 12
22 24 23 23 18 12 8 2 4 9 12 12 11 12 16 17 19 22 26 29 29 26 23 18 19 19 20 20 21 18 14 15 16 19 16 13 13 14 14 13 14 11 12 12
24 24 20 14 9 6 2 7 10 10 9 9 11 14 15 16 19 22 26 29 27 26 25 23 19 21 23 24 24 17 16 15 14 14 15 15 14 14 13 14 13 13 13 11
16 14 12 8 1 5 7 7 7 9 9 11 14 15 15 14 18 22 25 28 27 25 25 24 24 29 22 27 20 15 17 15 14 14 13 14 14 14 14 14 14 15 14 14
13 9 3 5 8 7 9 10 11 11 11 14 16 17 15 17 19 21 26 32 30 22 25 25 26 26 24 24 16 15 17 18 18 18 17 19 20 18 17 16 17 17 17 17
3 6 10 12 11 11 11 11 13 13 13 13 13 14 18 21 22 24 27 31 29 24 26 27 27 26 23 21 16 16 19 21 22 21 21 22 23 22 20 18 19 17 20 17
9 11 12 13 14 14 14 13 11 12 14 15 17 18 21 23 24 26 33 31 27 25 27 28 27 26 23 20 18 20 22 23 25 25 23 23 24 24 20 20 21 20 19 18
12 13 15 15 14 14 14 12 12 14 16 17 19 21 22 27 27 27 27 31 27 24 24 25 24 23 22 21 20 20 24 27 29 30 29 29 28 25 24 23 22 23 22 21
12 13 13 14 14 13 14 15 18 20 21 23 24 23 22 21 26 29 29 25 21 22 23 21 20 20 21 20 21 23 24 25 28 30 31 31 33 32 28 24 23 25 25 24
15 15 14 14 15 17 18 21 25 26 26 26 26 28 25 26 27 25 24 22 22 22 23 22 21 20 21 23 24 23 26 28 29 28 29 30 30 30 30 27 23 22 25 26
14 16 18 21 22 23 23 26 27 25 24 27 32 30 25 26 27 25 23 21 19 22 20 21 20 19 19 20 23 25 27 28 30 30 29 30 29 30 28 25 22 19 19 21
Wind_Direction
57 28 27 213 133 119 195 204 170 245 218 174 162 142 136 132 128 120 43 2 356 3 360 340 340 330 324 322 319 324 330 333 336 336 333 334 334 326 314 309 306 287 297 308
62 14 17 317 293 257 242 227 232 206 62 112 129 131 131 135 132 114 46 14 30 352 334 353 327 326 323 322 329 336 335 335 333 330 332 337 334 318 288 304 261 279 307 303
255 5 357 348 222 213 170 37 223 219 175 134 124 140 154 156 155 142 23 16 340 339 359 331 325 323 326 330 334 336 332 333 329 328 334 337 332 322 309 273 310 300 300 304
191 30 20 249 304 207 141 90 112 104 130 147 159 160 157 153 153 197 208 320 334 343 333 322 321 323 327 336 337 332 327 324 324 326 333 335 329 330 323 343 302 297 297 307
132 195 300 300 189 160 167 223 175 146 154 140 153 148 165 141 74 194 319 333 324 324 322 325 325 328 329 332 330 324 318 322 324 327 332 332 326 332 326 327 305 301 307 312
146 141 217 235 213 133 87 277 175 163 167 160 160 173 239 189 292 227 320 312 317 323 328 323 324 325 327 324 321 318 319 322 325 328 324 317 314 317 312 312 311 310 316 327
141 215 286 240 194 138 103 238 172 180 179 175 184 208 224 212 165 314 319 327 331 328 326 326 329 328 321 323 325 324 318 323 326 320 315 314 306 301 314 308 309 319 327 333
106 96 279 190 157 173 198 158 181 187 183 183 197 206 185 196 272 298 295 307 316 318 323 328 326 318 321 325 326 322 318 324 328 322 325 310 310 312 313 314 316 324 331 334
185 211 244 182 204 208 209 192 192 189 182 194 191 191 203 200 199 272 301 314 319 325 327 327 325 327 326 325 324 322 321 327 324 323 319 307 310 312 313 313 322 329 333 336
105 235 231 236 223 225 208 217 189 194 179 200 199 186 186 180 242 294 312 321 325 324 321 323 325 324 321 320 318 316 314 319 319 321 314 308 306 310 309 315 323 330 333 340
253 284 117 206 217 216 197 184 171 174 193 210 187 170 189 232 295 316 321 324 324 321 321 323 324 322 320 319 322 320 309 308 312 317 318 313 309 298 305 316 325 331 335 341
234 220 232 237 206 193 185 183 195 193 159 159 186 184 239 313 324 324 322 320 319 320 322 323 322 322 324 320 319 307 301 304 302 315 322 339 320 302 302 311 320 329 331 335
249 273 252 253 185 188 191 184 181 173 175 174 156 263 324 328 324 316 315 318 321 322 321 320 321 320 327 322 316 310 301 296 293 307 318 325 328 308 305 315 327 323 326 337
263 224 171 175 188 187 186 159 163 161 161 173 225 318 321 319 314 315 319 321 319 319 321 321 320 320 329 319 310 314 306 298 299 306 302 309 320 316 305 321 322 327 325 333
239 215 244 206 174 167 163 162 158 156 156 197 319 317 312 313 316 320 321 317 314 316 320 321 320 322 328 322 315 320 303 294 296 293 298 301 315 324 296 310 318 318 319 325
223 201 173 164 157 157 160 171 177 165 247 304 307 307 310 316 317 316 315 315 318 319 320 323 324 330 325 323 317 313 297 289 292 299 291 301 306 304 290 302 308 309 311 319
174 164 163 151 148 148 162 159 171 279 306 305 303 307 314 314 311 311 317 320 318 318 322 326 328 325 319 321 316 304 288 285 294 293 294 298 291 293 291 299 307 305 310 313
187 160 153 147 143 158 189 195 297 303 302 303 305 308 311 313 316 323 325 325 323 323 334 330 321 316 317 315 317 301 281 280 288 298 292 290 279 277 284 295 309 297 306 301
141 140 136 141 148 165 298 300 295 297 303 302 300 307 311 316 321 325 329 333 333 331 334 327 314 319 314 304 312 292 281 289 295 296 292 291 280 279 278 281 300 298 302 303
99 105 126 126 106 313 301 301 315 318 314 304 307 308 307 313 322 326 330 332 329 325 321 325 316 317 310 307 305 276 275 281 286 298 297 301 285 278 276 277 284 295 297 296
136 135 105 356 339 336 334 326 322 320 315 309 304 303 296 309 319 323 327 328 334 320 323 326 328 325 322 321 303 272 271 275 280 288 292 292 305 274 271 275 276 284 288 295
55 1 346 343 336 330 325 320 316 312 312 310 307 302 302 307 313 313 319 324 325 324 322 323 322 324 319 316 295 279 273 276 280 281 285 291 289 299 268 268 272 271 279 283
326 323 324 327 324 319 317 319 316 309 306 302 303 300 301 303 306 308 316 324 320 319 313 314 316 319 315 312 296 284 281 281 281 284 285 285 286 283 283 269 267 272 279 281
313 315 317 318 317 318 317 319 319 317 317 318 316 314 308 306 300 304 313 316 315 311 310 312 312 313 315 305 304 296 284 283 284 285 285 280 278 276 271 269 267 269 272 276
327 323 321 317 316 318 317 321 317 314 309 307 307 305 308 297 300 311 317 316 313 313 314 316 313 315 314 313 305 302 300 296 293 289 287 284 280 277 275 271 265 265 266 263
325 327 327 325 321 319 315 315 312 311 309 307 310 316 308 299 305 305 307 309 305 307 310 311 311 310 311 314 310 303 303 303 300 297 294 294 290 285 275 268 273 274 266 264
326 322 319 317 314 314 308 307 308 308 306 306 311 312 306 303 303 300 301 294 300 307 305 310 310 314 313 310 310 309 309 307 306 297 294 296 295 292 285 266 266 272 276 265
Height
1542 1543 1539 1540 1541 1544 1547 1549 1558 1550 1550 1546 1547 1548 1549 1550 1551 1552 1553 1553 1551 1552 1551 1550 1548 1545 1543 1541 1538 1534 1531 1528 1523 1519 1516 1512 1508 1503 1498 1496 1492 1492 1490 1488
1545 1546 1548 1545 1544 1543 1543 1541 1541 1539 1547 1544 1546 1548 1550 1550 1550 1551 1552 1552 1552 1551 1548 1546 1544 1542 1539 1537 1534 1530 1526 1523 1519 1515 1511 1506 1501 1496 1494 1491 1488 1486 1485 1483
1561 1558 1554 1562 1541 1536 1534 1535 1536 1543 1541 1545 1547 1548 1548 1549 1549 1550 1550 1550 1549 1547 1544 1542 1540 1538 1536 1533 1529 1525 1522 1518 1514 1510 1505 1500 1496 1492 1489 1486 1485 1484 1481 1479
1572 1569 1577 1538 1532 1531 1535 1538 1537 1539 1543 1544 1545 1546 1547 1548 1547 1547 1547 1546 1545 1543 1541 1540 1538 1535 1532 1528 1524 1520 1515 1512 1509 1505 1500 1495 1491 1488 1485 1481 1482 1480 1478 1476
1577 1572 1553 1534 1531 1532 1533 1539 1537 1538 1541 1543 1544 1546 1547 1546 1545 1545 1544 1543 1541 1540 1538 1537 1534 1531 1527 1523 1519 1515 1511 1507 1503 1500 1495 1491 1488 1485 1483 1480 1479 1478 1475 1471
1572 1577 1574 1536 1527 1527 1528 1546 1532 1534 1538 1539 1542 1549 1542 1542 1541 1542 1541 1540 1539 1537 1536 1533 1529 1526 1521 1517 1514 1511 1507 1503 1498 1495 1491 1487 1484 1481 1479 1478 1476 1474 1470 1467
1581 1581 1552 1528 1524 1527 1547 1539 1526 1529 1532 1534 1536 1536 1537 1538 1538 1539 1538 1537 1535 1534 1531 1529 1525 1521 1517 1513 1509 1506 1502 1498 1494 1490 1487 1484 1480 1478 1476 1474 1472 1470 1467 1463
1569 1577 1555 1519 1524 1531 1522 1520 1522 1525 1527 1529 1530 1531 1533 1535 1536 1534 1533 1532 1531 1529 1527 1524 1520 1516 1513 1509 1505 1502 1498 1494 1489 1486 1482 1479 1477 1475 1473 1471 1469 1467 1463 1459
1536 1531 1514 1513 1511 1513 1514 1515 1517 1520 1522 1525 1526 1528 1529 1530 1530 1530 1529 1528 1527 1524 1521 1519 1516 1512 1508 1504 1500 1496 1492 1488 1485 1481 1478 1476 1474 1472 1470 1468 1465 1463 1459 1456
1523 1510 1510 1510 1510 1510 1511 1512 1514 1517 1520 1522 1523 1525 1526 1526 1526 1526 1525 1524 1522 1519 1516 1514 1511 1507 1503 1498 1494 1490 1487 1484 1481 1477 1474 1472 1470 1468 1466 1464 1462 1459 1456 1453
1514 1508 1506 1506 1507 1507 1509 1511 1513 1515 1517 1519 1521 1522 1522 1523 1523 1523 1522 1520 1517 1514 1511 1508 1505 1500 1495 1491 1487 1484 1482 1479 1476 1473 1470 1468 1466 1465 1463 1461 1458 1455 1452 1450
1507 1501 1501 1500 1502 1504 1506 1509 1510 1512 1513 1516 1518 1519 1520 1520 1520 1519 1517 1515 1512 1509 1506 1502 1498 1493 1489 1485 1481 1479 1476 1474 1471 1470 1467 1465 1463 1462 1460 1457 1455 1453 1450 1448
1495 1496 1496 1496 1498 1501 1503 1505 1506 1509 1511 1513 1516 1517 1518 1517 1516 1515 1513 1510 1507 1503 1499 1496 1492 1487 1484 1480 1476 1472 1469 1468 1467 1465 1464 1462 1460 1458 1455 1454 1453 1450 1448 1445
1490 1491 1493 1493 1494 1498 1500 1502 1504 1506 1509 1511 1513 1514 1514 1513 1512 1510 1508 1505 1502 1498 1495 1490 1486 1481 1478 1474 1470 1467 1465 1464 1462 1461 1460 1459 1457 1455 1452 1451 1449 1447 1445 1443
1485 1485 1487 1489 1493 1496 1499 1501 1502 1504 1506 1509 1510 1510 1510 1509 1507 1506 1503 1500 1496 1493 1489 1484 1479 1476 1473 1469 1465 1462 1461 1459 1458 1457 1456 1455 1453 1451 1450 1448 1446 1444 1442 1441
1481 1483 1485 1487 1491 1495 1497 1500 1504 1505 1504 1505 1506 1506 1505 1504 1502 1500 1498 1494 1489 1484 1481 1477 1473 1471 1468 1465 1461 1459 1457 1455 1454 1453 1452 1451 1450 1448 1446 1445 1443 1441 1440 1438
1479 1482 1482 1483 1487 1494 1500 1502 1502 1502 1502 1502 1501 1501 1500 1498 1496 1495 1492 1488 1483 1479 1475 1472 1468 1466 1463 1460 1457 1453 1452 1451 1450 1449 1448 1447 1445 1444 1443 1441 1440 1438 1437 1435
1474 1477 1480 1485 1490 1496 1499 1499 1499 1498 1498 1498 1498 1497 1496 1494 1491 1489 1486 1482 1477 1473 1471 1468 1465 1461 1458 1455 1452 1449 1447 1446 1445 1444 1442 1441 1441 1440 1439 1437 1436 1434 1433 1432
1474 1477 1482 1489 1493 1495 1495 1496 1495 1494 1494 1493 1493 1492 1491 1489 1487 1484 1480 1476 1471 1467 1466 1463 1459 1456 1452 1449 1446 1444 1443 1442 1440 1439 1438 1437 1436 1435 1434 1434 1432 1431 1429 1428
1482 1487 1490 1491 1493 1493 1493 1492 1490 1490 1490 1490 1488 1487 1486 1485 1482 1479 1476 1472 1469 1465 1460 1457 1453 1449 1446 1442 1439 1438 1437 1437 1436 1435 1434 1432 1431 1430 1429 1428 1428 1426 1425 1423
1489 1490 1490 1491 1491 1490 1489 1488 1488 1488 1487 1486 1484 1483 1481 1480 1477 1474 1470 1465 1463 1460 1455 1452 1448 1444 1440 1436 1433 1432 1432 1431 1431 1430 1428 1427 1426 1425 1424 1423 1422 1421 1420 1418
1490 1489 1489 1489 1489 1488 1488 1487 1485 1484 1483 1481 1480 1479 1477 1475 1472 1469 1466 1462 1457 1454 1450 1447 1443 1439 1435 1432 1429 1428 1427 1426 1425 1424 1423 1422 1420 1418 1417 1417 1416 1415 1414 1413
1490 1489 1488 1488 1487 1486 1484 1483 1482 1480 1479 1478 1476 1474 1471 1467 1466 1462 1457 1455 1450 1447 1444 1441 1438 1435 1431 1427 1425 1423 1421 1420 1419 1417 1416 1415 1413 1412 1410 1410 1409 1408 1408 1407
1488 1488 1487 1486 1484 1483 1482 1481 1479 1477 1476 1474 1471 1468 1465 1462 1459 1457 1453 1448 1444 1441 1439 1435 1432 1429 1425 1422 1419 1417 1415 1413 1411 1410 1408 1407 1405 1403 1402 1402 1401 1401 1401 1400
1486 1485 1484 1483 1482 1480 1478 1476 1474 1472 1470 1467 1464 1461 1459 1456 1453 1449 1445 1442 1439 1436 1433 1430 1426 1423 1420 1417 1413 1411 1408 1406 1403 1401 1399 1397 1395 1394 1393 1393 1393 1393 1392 1393
1483 1483 1482 1480 1479 1477 1474 1472 1468 1465 1462 1459 1457 1454 1452 1450 1447 1443 1440 1437 1434 1431 1427 1423 1420 1417 1414 1411 1408 1404 1401 1397 1395 1392 1390 1387 1385 1383 1383 1383 1383 1383 1383 1383
1482 1481 1479 1476 1475 1472 1469 1466 1462 1458 1456 1453 1449 1447 1445 1443 1440 1437 1434 1431 1428 1425 1422 1418 1415 1411 1408 1405 1401 1397 1394 1390 1386 1383 1380 1378 1375 1374 1373 1374 1375 1375 1375 1375